Home   Weather   Philadelphia   Past weeks

Flag for USA Past Weather in Philadelphia, Pennsylvania, USA — Yesterday and Last 2 Weeks

Now
41 °F

Passing clouds.


Feels Like: 39 °F
Forecast: 34 / 45 °F
Wind: 3 mph from Northwest

Location: Philadelphia International Airport

Current Time: Dec 4, 2016 at 7:31:28 am

Latest Report: Dec 4, 2016 at 6:54 am


Visibility: 10 mi

Pressure: 30.24 "Hg

Humidity: 53%

Dew Point: 25 °F

Location of PhiladelphiaLocation

Past Weather in Philadelphia — Graph

°F

Philadelphia Temperature Yesterday

Maximum temperature yesterday: 51 °F (at 1:54 pm)
Minimum temperature yesterday: 42 °F (at 12:54 am)
Average temperature yesterday: 46 °F

High & Low Weather Summary for the Past Weeks

 TemperatureHumidityPressure
High72 °F (Nov 19, 1:54 pm)100% (Nov 30, 9:54 am)30.36 "Hg (Nov 30, 9:54 am)
Low32 °F (Nov 23, 4:54 am)29% (Nov 23, 3:54 pm)29.50 "Hg (Dec 1, 2:01 am)
Average47 °F61%30.02 "Hg
* Reported Nov 19 5:54 am — Dec 4 5:54 am, Philadelphia, Weather by CustomWeather, © 2016

Note: Actual official high and low records may vary slightly from our data, if they occured in-between our weather recording intervals... More about our weather records

Advertising

Philadelphia Weather History for the Previous 24 Hours

Scroll right to see more
 ConditionsComfort  
Time TempWeatherWind HumidityBarometerVisibility
5:54 am
Sun, Dec 4
43 °FOvercast.5 mph49%30.23 "Hg10 mi
4:54 am43 °FOvercast.6 mph49%30.23 "Hg10 mi
3:54 am44 °FOvercast.8 mph45%30.23 "Hg10 mi
2:54 am44 °FPassing clouds.10 mph45%30.23 "Hg10 mi
1:54 am45 °FPassing clouds.15 mph48%30.22 "Hg10 mi
12:54 am46 °FOvercast.10 mph54%30.22 "Hg10 mi
11:54 pm
Sat, Dec 3
46 °FPassing clouds.10 mph51%30.20 "Hg10 mi
10:54 pm47 °FPassing clouds.12 mph50%30.20 "Hg10 mi
9:54 pm47 °FPassing clouds.14 mph52%30.18 "Hg10 mi
8:54 pm47 °FPassing clouds.8 mph52%30.18 "Hg10 mi
7:54 pm47 °FPassing clouds.12 mph52%30.18 "Hg10 mi
6:54 pm47 °FPassing clouds.13 mph54%30.16 "Hg10 mi
5:54 pm48 °FPassing clouds.9 mph52%30.15 "Hg10 mi
4:54 pm48 °FMostly cloudy.12 mph52%30.16 "Hg10 mi
3:54 pm49 °FPartly sunny.17 mph50%30.15 "Hg10 mi
2:54 pm51 °FPartly sunny.18 mph42%30.11 "Hg10 mi
1:54 pm51 °FPartly sunny.17 mph41%30.08 "Hg10 mi
12:54 pm50 °FPartly sunny.14 mph41%30.11 "Hg10 mi
11:54 am49 °FPartly sunny.16 mph44%30.12 "Hg10 mi
10:54 am48 °FPartly sunny.18 mph46%30.13 "Hg10 mi
9:54 am46 °FPartly sunny.12 mph56%30.13 "Hg10 mi
8:54 am45 °FPartly sunny.15 mph60%30.11 "Hg10 mi
7:54 am44 °FPartly sunny.17 mph58%30.10 "Hg10 mi
Weather by CustomWeather, © 2016

See weather overviewHow to use our weather pages